Weather History for CWEU - March, 2014

Change the Weather History Date:

Monday, March 10, 2014

  Actual Average Record
Temperature  
Mean Temperature -35 °F -  
Max Temperature -28 °F -23 °F -13 °F (2005)
Min Temperature -42 °F -37 °F -50 °F (2001)
Degree Days  
Heating Degree Days 100    
Moisture  
Dew Point -43 °F    
Average Humidity 61    
Maximum Humidity 68    
Minimum Humidity 42    
Precipitation  
Precipitation 0.00 in 0.00 in - ()
Sea Level Pressure  
Sea Level Pressure 29.72 in    
Wind  
Wind Speed 2 mph ()    
Max Wind Speed 8 mph    
Max Gust Speed -    
Visibility 14.7 miles    
Events Snow    
Averages and records for this station are not official NWS values.
T = Trace of Precipitation, MM = Missing Value Source: Averaged Metar Reports

Daily Weather History Graph

Daily Weather History Graph

Search for Another Location

Airport or City:

Trip Planner

Search our weather history database for the weather conditions in past years. The results will help you decide how hot, cold, wet, or windy it might be!

Date:

Astronomy

Mar. 10, 2014 Rise Set
Actual Time 8:06 AM CDT 5:44 PM CDT
Civil Twilight 6:07 AM CDT 7:45 PM CDT
Nautical Twilight 3:23 AM CDT 10:36 PM CDT
Astronomical Twilight Sun does not rise Sun does not rise
Moon No Moon Rise No Moon Set
Length of Visible Light 13h 38m
Length of Day
9h 37m
Waxing Gibbous, 70% of the Moon is Illuminated
Mar 10
Waxing Gibbous
Mar 16
Full
Mar 23
Last Quarter
Mar 30
New
Apr 7
First Quarter

Hourly Weather History & Observations

Time (CDT) Temp. Windchill Dew Point Humidity Pressure Visibility Wind Dir Wind Speed Gust Speed Precip Events Conditions
1:00 AM -40 °F - -47 °F 48% 29.72 in 15 mi East 3.5 mph - - Snow Snow
1:00 AM -40.0 °F -56.6 °F -47.2 °F 67% 29.72 in 15.0 mi SE 4.6 mph - N/A   Partly Cloudy
2:00 AM -41.8 °F - -49.0 °F 67% 29.73 in 15.0 mi Calm Calm - N/A   Clear
3:00 AM -41.8 °F - -49.0 °F 67% 29.73 in 15.0 mi East 2.3 mph - N/A   Clear
3:39 AM - - - N/A% - 15.0 mi Calm Calm - N/A   Clear
4:00 AM -41.8 °F - -49.0 °F 67% 29.73 in 15.0 mi Calm Calm - N/A   Partly Cloudy
5:00 AM -41.8 °F - -49.0 °F 67% 29.74 in 15.0 mi Calm Calm - N/A   Scattered Clouds
6:00 AM -40.0 °F - -47.2 °F 67% 29.74 in 15.0 mi Calm Calm - N/A   Mostly Cloudy
7:00 AM -43 °F - -49 °F 52% 29.73 in 15 mi Calm Calm - -   Partly Cloudy
7:00 AM -41.8 °F - -49.0 °F 67% 29.73 in 15.0 mi Calm Calm - N/A   Partly Cloudy
8:00 AM -40.0 °F - -47.2 °F 67% 29.73 in 15.0 mi ENE 2.3 mph - N/A   Partly Cloudy
9:00 AM -40.0 °F - -47.2 °F 67% 29.73 in 15.0 mi Calm Calm - N/A   Partly Cloudy
10:00 AM -36.4 °F - -43.6 °F 67% 29.73 in 15.0 mi Calm Calm - N/A   Mostly Cloudy
11:00 AM -36.4 °F - -43.6 °F 67% 29.72 in 15.0 mi Calm Calm - N/A   Mostly Cloudy
12:00 PM -32.8 °F - -41.8 °F 62% 29.72 in 15.0 mi South 2.3 mph - N/A   Mostly Cloudy
1:00 PM -32 °F - -41 °F 43% 29.71 in 15 mi Calm Calm - - Snow Light Snow
1:00 PM -32.8 °F - -40.0 °F 68% 29.71 in 15.0 mi Calm Calm - N/A Snow Light Snow
2:00 PM -31.0 °F - -40.0 °F 62% 29.71 in 6.0 mi ENE 2.3 mph - N/A Snow Light Snow
3:00 PM -29.2 °F - -40.0 °F 56% 29.71 in 15.0 mi Calm Calm - N/A Snow Light Snow
3:45 PM - - - N/A% - 15.0 mi SSE 2.3 mph - N/A   Mostly Cloudy
4:00 PM -31.0 °F - -40.0 °F 62% 29.71 in 15.0 mi Calm Calm - N/A   Mostly Cloudy
5:00 PM -29.2 °F - -40.0 °F 56% 29.71 in 15.0 mi SE 2.3 mph - N/A   Mostly Cloudy
6:00 PM -29.2 °F - -38.2 °F 62% 29.71 in 15.0 mi Calm Calm - N/A   Mostly Cloudy
7:00 PM -29 °F - -38 °F 42% 29.71 in 15 mi SE 6.9 mph - -   Partly Cloudy
7:00 PM -29.2 °F -48.1 °F -38.2 °F 62% 29.71 in 15.0 mi SE 6.9 mph - N/A   Mostly Cloudy
8:00 PM -31.0 °F -46.1 °F -41.8 °F 56% 29.72 in 15.0 mi SE 4.6 mph - N/A   Mostly Cloudy
9:00 PM -29.2 °F -44.0 °F -36.4 °F 68% 29.72 in 15.0 mi SE 4.6 mph - N/A   Mostly Cloudy
10:00 PM -29.2 °F -49.7 °F -38.2 °F 62% 29.71 in 15.0 mi SE 8.1 mph - N/A   Mostly Cloudy